Powrót do katalogu

STARLINK-31372

AktywnyŁącznośćVLEO
NORAD 58939·PAYLOAD·🇺🇸 United States

Wystrzelony Feb 10, 2024 z Vandenberg Space Force Base

Loading…

Następne Przeloty (najbliższe 24 godziny)

TLE

ŚwieżeSource: CelesTrak SupGP

Epoka: Sep 15, 2026, 03:04 UTC

1 58939C 24027J   26258.12826389  .00013761  00000+0  40663-3 0  2588
2 58939  53.1581 149.0200 0001300  89.3321 207.7792 15.34378490    14

Śledź STARLINK-31372 w czasie rzeczywistym z AllMySat

Download on the App Store